Regional Weather Roundup
Issued by NWS

Home | Current Version | Previous Version | Graphics & Text | Print | Product List | Glossary On
Versions: 1 2 3 4 5 6 7 8 9 10 11 12 13 14 15 16 17 18 19 20 21 22 23 24 25 26 27 28 29 30 31 32 33 34 35 36 37 38 39 40 41 42 43 44 45 46 47 48 49 50
000
ASUS44 KMEG 180510
RWRTN
TENNESSEE HOURLY STATE WEATHER ROUNDUP
NATIONAL WEATHER SERVICE MEMPHIS TN
1100 PM CST WED DEC 17 2014

TNZ002-004-019-021-049-052-054-088>092-180600-
WEST TENNESSEE

CITY           SKY/WX    TMP DP  RH WIND       PRES   REMARKS
MEMPHIS INTL   CLOUDY    40  32  73 NW7       30.32R
NWS MEMPHIS      N/A     39 N/A N/A MISG        N/A
JACKSON        LGT RAIN  38  32  79 NE5       30.25S WCI  34
DYERSBURG      CLOUDY    37  23  56 N7        30.32R WCI  32
UNION CITY     CLOUDY    34  30  86 N5        30.28R WCI  30
PARIS          CLOUDY    34  27  75 NE6       30.26S WCI  29
HUNTINGDON     CLOUDY    34  29  82 NE6       30.25S WCI  29
LEXINGTON      CLOUDY    36  30  80 CALM      30.23S
SAVANNAH       CLOUDY    37  30  75 NE5       30.24S WCI  34
$$

TNZ008-025-027-028-033-062-065-066-180600-
NORTH MIDDLE TENNESSEE

CITY           SKY/WX    TMP DP  RH WIND       PRES   REMARKS
NASHVILLE      PTCLDY    32  28  85 N6        30.27R WCI  26
CLARKSVILLE    PTCLDY    30  26  85 CALM      30.28R
SMYRNA         PTCLDY    28  27  96 CALM      30.27S
COOKEVILLE     CLEAR     25  25 100 CALM      30.22F
CROSSVILLE     PTCLDY    32  27  81 CALM      30.20S
$$

TNZ061-075-076-078-094-096-097-180600-
SOUTH MIDDLE TENNESSEE

CITY           SKY/WX    TMP DP  RH WIND       PRES   REMARKS
FAYETTEVILLE   CLEAR     32  28  86 MISG      30.22S
TULLAHOMA      CLEAR     30  28  93 NE3       30.22F
WINCHESTER     CLEAR     30  28  93 CALM      30.22F
MCMINNVILLE    CLEAR     28  28 100 CALM      30.24R
SHELBYVILLE    CLEAR     30  28  93 CALM      30.25S
$$

TNZ017-018-042-046-047-180600-
NORTHEAST TENNESSEE

CITY           SKY/WX    TMP DP  RH WIND       PRES   REMARKS
TRI CITIES     CLEAR     29  27  92 CALM      30.18S
ELIZABETHTON   CLEAR     27  27 100 CALM      30.16F
$$

TNZ012-013-036-069-073-074-180600-
CENTRAL EAST TENNESSEE

CITY           SKY/WX    TMP DP  RH WIND       PRES   REMARKS
KNOXVILLE      PTCLDY    33  32  96 NE5       30.20S WCI  29
OAK RIDGE      CLEAR     33  29  85 CALM      30.22F
GATLINBURG     PTCLDY    28  28 100 CALM      30.19F
MORRISTOWN     CLEAR     34  30  86 N3        30.19F
$$

TNZ083-085-099-180600-
SOUTHEAST TENNESSEE

CITY           SKY/WX    TMP DP  RH WIND       PRES   REMARKS
CHATTANOOGA    CLOUDY    34  31  88 N3        30.23R
$$

SKY/WX REPORTED AS FAIR MEANS FEW OR NO CLOUDS BELOW
12 THOUSAND FEET.




USA.gov is the U.S. government's official web portal to all federal, state and local government web resources and services.